Pagrindinis puslapis
METAR-TAF:

METAR-TAF

Oro uostai :

Perry Lefors Field

Pampa, Teksasas, Jungtinės Amerikos Valstijos

platuma: 35-36-46N, ilguma: 100-59-46W, Aukštis: 989 m

Dabartinis oras

Ataskaita buvo paskelbta 18 minutes, ne 03:50 UTC
Vėjas 10 kt iš Pietų
Temperatūra 29°C
Drėgmė 40%
Slėgis 1017 hPa
Matomumas: 16.1 km
Giedras dangus

METAR: KPPA 160350Z AUTO 17010KT 10SM CLR 29/14 A3002 RMK AO2 T02890136

Laikas: 23:08 (04:08 UTC)


TAF: trūkstamas

Orai ataskaitas ir orų prognozės (METAR, TAF).

turimą stotys yra geltonos ir raudonos taškus žemėlapyje.

Perkelti pele per norėdami pamatyti stoties vardą.

Tada spustelėkite, norėdami matyti oro stebėjimo ir prognozės.

Norėdami pakeisti žemėlapį: spustelėkite ant žalios mygtukų su juodo kryžiaus žemyn,; žalią mygtuką su brūkšneliu, jei norite nutolinti; arba žalių rodyklių gretimoms žemėlapius.


METAR-TAF: